EHI
0 0 0 0 0 0 0 0 0 0 0 0 0 0 0 0 0 0 0 0 0 0 0 0 0 0 0 0 0 0 0 0 0 0 0 0 0 0 0 0 0 0 0 0
0 0 0 0 0 0 0 0 0 0 0 0 0 0 0 0 0 0 0 0 0 0 0 0 0 0 0 0 0 0 0 0 0 0 0 0 0 0 0 0 0 0 0 0
0 0 0 0 0 0 0 0 0 0 0 0 0 0 0 0 0 0 0 0 0 0 0 0 0 0 0 0 0 0 0 0 0 0 0 0 0 0 0 0 0 0 0 0
0 0 0 0 0 0 0 0 0 0 0 0 0 0 0 0 0 0 0 0 0 0 0 0 0 0 0 0 0 0 0 0 0 0 0 0 0 0 0 0 0 0 0 0
0 0 0 0 0 0 0 0 0 0 0 0 0 0 0 0 0 0 0 0 0 0 0 0 0 0 0 0 0 0 0 0 0 0 0 0 0 0 0 0 0 0 0 0
0 0 0 0 0 0 0 0 0 0 0 0 0 0 0 0 0 0 0 0 0 0 0 0 0 0 0 0 0 0 0 0 0 0 0 0 0 0 0 0 0 0 0 0
0 0 0 0 0 0 0 0 0 0 0 0 0 0 0 0 0 0 0 0 0 0 0 0 0 0 0 0 0 0 0 0 0 0 0 0 0 0 0 0 0 0 0 0
0 0 0 0 0 0 0 0 0 0 0 0 0 0 0 0 0 0 0 0 0 0 0 0 0 0 0 0 0 0 0 0 0 0 0 0 0 0 0 0 0 0 0 0
0 0 0 0 0 0 0 0 0 0 0 0 0 0 0 0 0 0 0 0 0 0 0 0 0 0 0 0 0 0 0 0 0 0 0 0 0 0 0 0 0 0 0 0
0 0 0 0 0 0 0 0 0 0 0 0 0 0 0 0 0 0 0 0 0 0 0 0 0 0 0 0 0 0 0 0 0 0 0 0 0 0 0 0 0 0 0 0
0 0 0 0 0 0 0 0 0 0 0 0 0 0 0 0 0 0 0 0 0 0 0 0 0 0 0 0 0 0 0 0 0 0 0 0 0 0 0 0 0 0 0 0
0 0 0 0 0 0 0 0 0 0 0 0 0 0 0 0 0 0 0 0 0 0 0 0 0 0 0 0 0 0 0 0 0 0 0 0 0 0 0 0 0 0 0 0
0 0 0 0 0 0 0 0 0 0 0 0 0 0 0 0 0 0 0 0 0 0 0 0 0 0 0 0 0 0 0 0 0 0 0 0 0 0 0 0 0 0 0 0
0 0 0 0 0 0 0 0 0 0 0 0 0 0 0 0 0 0 0 0 0 0 0 0 0 0 0 0 0 0 0 0 0 0 0 0 0 0 0 0 0 0 0 0
0 0 0 0 0 0 0 0 0 0 0 0 0 0 0 0 0 0 0 0 0 0 0 0 0 0 0 0 0 0 0 0 0 0 0 0 0 0 0 0 0 0 0 0
0 0 0 0 0 0 0 0 0 0 0 0 0 0 0 0 0 0 0 0 0 0 0 0 0 0 0 0 0 0 0 0 0 0 0 0 0 0 0 0 0 0 0 0
0 0 0 0 0 0 0 0 0 0 0 0 0 0 0 0 0 0 0 0 0 0 0 0 0 0 0 0 0 0 0 0 0 0 0 0 0 0 0 0 0 0 0 0
0 0 0 0 0 0 0 0 0 0 0 0 0 0 0 0 0 0 0 0 0 0 0 0 0 0 0 0 0 0 0 0 0 0 0 0 0 0 0 0 0 0 0 0
0 0 0 0 0 0 0 0 0 0 0 0 0 0 0 0 0 0 0 0 0 0 0 0 0 0 0 0 0 0 0 0 0 0 0 0 0 0 0 0 0 0 0 0
0 0 0 0 0 0 0 0 0 0 0 0 0 0 0 0 0 0 0 0 0 0 0 0 0 0 0 0 0 0 0 0 0 0 0 0 0 0 0 0 0 0 0 0
0 0 0 0 0 0 0 0 0 0 0 0 0 0 0 0 0 0 0 0 0 0 0 0 0 0 0 0 0 0 0 0 0 0 0 0 0 0 0 0 0 0 0 0
0 0 0 0 0 0 0 0 0 0 0 0 0 0 0 0 0 0 0 0 0 0 0 0 0 0 0 0 0 0 0 0 0 0 0 0 0 0 0 0 0 0 0 0
0 0 0 0 0 0 0 0 0 0 0 0 0 0 0 0 0 0 0 0 0 0 0 0 0 0 0 0 0 0 0 0 0 0 0 0 0 0 0 0 0 0 0 0
0 0 0 0 0 0 0 0 0 0 0 0 0 0 0 0 0 0 0 0 0 0 0 0 0 0 0 0 0 0 0 0 0 0 0 0 0 0 0 0 0 0 0 0
0 0 0 0 0 0 0 0 0 0 0 0 0 0 0 0 0 0 0 0 0 0 0 0 0 0 0 0 0 0 0 0 0 0 0 0 0 0 0 0 0 0 0 0
0 0 0 0 0 0 0 0 0 0 0 0 0 0 0 0 0 0 0 0 0 0 0 0 0 0 0 0 0 0 0 0 0 0 0 0 0 0 0 0 0 0 0 0
0 0 0 0 0 0 0 0 0 0 0 0 0 0 0 0 0 0 0 0 0 0 0 0 0 0 0 0 0 0 0 0 0 0 0 0 0 0 0 0 0 0 0 0
Wind_Speed
3 3 3 2 2 2 2 4 4 4 3 4 4 3 3 3 4 4 6 6 7 7 7 6 6 5 6 6 6 6 7 8 8 7 7 7 7 7 6 7 6 5 4 4
0 2 3 1 1 2 2 2 3 3 3 4 2 0 2 3 3 4 5 6 7 8 7 6 5 4 4 5 6 6 7 7 7 7 8 8 7 7 7 7 6 6 6 5
1 1 1 2 4 4 2 2 4 5 5 3 2 1 1 1 2 3 5 5 6 7 6 6 4 3 3 3 4 5 6 6 7 7 7 7 7 7 7 6 6 7 6 6
1 2 2 5 3 4 3 1 2 4 4 4 4 2 1 1 0 3 4 5 6 6 6 5 3 3 3 4 4 5 5 6 6 7 7 7 7 7 7 5 5 5 6 6
3 1 3 3 2 3 3 1 2 5 4 3 4 3 3 2 0 1 3 4 4 4 4 4 4 3 3 4 4 5 5 5 5 5 6 7 7 7 5 5 6 5 5 6
3 1 3 5 2 3 5 1 3 4 4 4 5 2 3 4 2 2 3 3 4 5 4 4 4 2 4 4 4 4 4 4 4 4 5 6 6 5 5 5 5 5 6 6
2 2 5 4 2 4 3 6 4 5 6 5 4 5 4 2 1 2 3 4 4 5 4 4 3 2 3 3 3 3 2 3 4 4 5 5 5 5 5 5 6 6 7 7
3 2 6 5 5 6 7 4 5 6 5 5 4 3 1 1 1 2 3 5 5 5 5 4 3 2 2 3 3 2 3 4 4 5 5 5 6 6 6 6 6 6 6 6
7 7 5 5 6 5 6 6 6 6 5 5 4 2 2 1 1 2 3 4 4 4 5 5 4 2 2 3 2 2 3 4 3 5 5 5 6 6 5 6 5 5 5 5
1 4 3 3 4 5 6 7 6 6 5 5 4 3 2 1 1 2 3 3 4 4 5 5 5 3 2 3 2 3 3 2 3 4 4 5 5 4 5 5 5 5 5 4
2 2 2 3 5 7 6 7 7 6 5 6 5 3 2 1 1 2 2 3 3 3 4 4 4 3 3 3 3 4 3 2 2 2 3 3 4 4 4 3 3 3 2 2
8 8 8 8 8 8 9 8 8 7 5 4 4 4 2 1 1 1 2 2 3 4 4 4 3 3 3 2 2 3 2 1 1 1 1 1 2 3 5 4 7 7 6 4
7 6 6 6 8 8 9 9 7 7 7 5 3 3 3 1 1 1 1 2 3 4 4 3 2 3 3 2 2 2 2 1 1 1 1 1 1 1 2 4 6 8 9 9
6 7 4 5 7 8 8 8 7 6 6 6 4 3 2 1 0 1 2 3 3 3 3 2 2 3 3 1 2 2 2 1 2 1 1 1 1 1 1 2 2 3 6 9
6 5 7 6 8 7 7 7 6 6 5 4 4 4 3 3 2 3 3 3 2 3 3 2 2 3 3 2 2 2 1 1 1 1 1 1 2 2 2 2 2 2 3 4
6 5 7 8 9 8 7 7 7 7 6 5 5 5 4 4 3 3 3 2 1 3 3 2 2 3 3 1 1 1 1 1 2 1 1 2 2 3 2 2 2 2 2 2
9 8 8 9 9 8 8 8 8 8 7 7 7 6 4 3 1 2 3 3 2 1 1 1 2 3 3 1 1 1 1 1 1 1 1 2 2 3 3 3 2 1 0 0
10 11 10 12 10 9 9 8 8 8 7 7 7 6 5 4 3 4 4 2 1 1 1 2 3 3 3 1 0 1 1 1 1 1 2 2 2 3 3 3 3 3 1 1
7 9 9 10 10 10 9 8 8 8 7 7 7 7 5 5 5 4 3 2 1 3 4 4 5 3 2 2 0 1 1 2 2 2 2 3 3 3 3 3 3 3 3 2
6 7 9 9 9 8 8 8 8 7 7 8 7 6 5 5 4 4 3 3 4 4 4 4 3 2 2 2 1 1 1 2 3 2 2 3 3 3 3 4 4 4 4 3
5 6 7 8 8 8 8 9 9 8 8 8 8 7 7 5 4 3 3 3 5 4 4 3 2 2 2 3 2 1 1 2 3 3 3 3 3 3 4 4 4 4 4 4
3 4 6 6 7 6 6 7 8 9 8 8 7 7 6 5 4 4 4 5 5 5 4 2 2 4 4 4 2 2 2 2 3 3 3 4 4 4 4 4 4 4 4 5
1 2 3 5 6 6 6 6 7 8 9 9 8 8 7 6 5 4 4 5 4 6 4 3 5 7 7 3 2 3 3 3 3 3 4 4 4 4 4 5 5 5 5 5
2 1 0 2 4 5 5 6 6 6 7 8 8 8 7 5 4 5 5 5 7 8 5 6 8 9 6 3 3 3 3 3 3 3 4 4 4 4 4 4 5 5 5 6
3 2 2 2 2 3 5 4 5 5 5 5 6 7 6 6 6 5 5 6 8 8 5 6 9 8 4 3 3 4 4 4 4 4 4 4 4 4 4 5 5 5 5 6
3 2 1 1 2 3 2 3 3 4 4 4 5 5 5 4 5 4 4 6 8 7 5 4 4 4 3 4 4 4 4 4 4 4 4 4 5 5 5 5 6 5 5 6
3 3 2 3 2 2 2 2 3 4 5 5 5 5 5 5 4 5 6 5 5 5 4 4 4 4 4 4 4 4 4 4 4 4 4 4 4 4 5 6 5 5 5 5
Wind_Direction
192 185 161 158 147 116 119 163 171 206 207 244 250 261 295 318 327 340 341 344 342 338 338 343 351 1 9 9 7 12 19 22 16 12 16 17 20 21 26 31 38 40 49 50
249 199 165 148 194 160 153 150 157 160 224 242 228 244 339 337 346 349 342 342 342 341 341 345 353 2 10 12 10 17 22 19 14 17 22 21 19 21 30 35 39 48 54 60
265 225 83 275 230 190 184 188 173 192 219 205 174 175 235 323 354 345 336 340 343 338 335 342 354 10 10 3 11 23 22 17 17 19 20 17 21 27 30 33 41 50 50 54
106 90 248 256 246 157 151 191 181 169 184 183 177 179 227 190 37 344 335 337 336 336 339 345 3 20 11 16 23 25 24 19 17 20 20 16 21 24 23 30 40 44 45 41
107 152 276 289 232 158 146 288 209 165 175 161 138 67 353 313 306 319 324 325 321 326 330 348 3 9 28 24 21 25 22 20 17 21 22 22 23 17 19 32 37 38 38 40
112 150 245 246 217 142 105 284 248 155 151 145 124 94 276 286 307 335 337 329 335 339 351 359 348 8 36 18 16 15 12 18 19 25 29 26 21 18 21 33 38 41 41 37
167 226 262 244 158 106 152 229 193 147 142 136 152 191 229 264 327 338 333 334 346 352 350 336 330 15 27 6 354 348 20 31 26 25 34 30 27 25 28 34 38 39 40 35
163 209 261 205 146 175 207 173 145 140 144 140 155 170 155 115 19 344 342 343 351 354 343 336 341 13 6 339 328 15 50 48 37 30 34 38 36 30 30 33 41 35 35 31
184 212 236 187 187 188 150 145 151 150 151 137 130 122 103 90 1 333 335 338 346 352 344 342 341 354 350 319 343 73 70 58 49 47 41 38 40 34 30 31 39 34 34 34
210 259 202 174 151 147 150 148 154 149 141 129 128 125 108 102 346 332 329 331 342 355 355 342 336 338 335 334 28 94 90 70 65 65 50 38 37 37 41 34 34 36 34 29
226 233 151 205 181 162 149 139 139 138 138 140 137 134 133 153 316 326 329 328 345 353 340 328 332 338 343 7 73 91 90 78 77 78 72 50 43 36 37 32 31 43 30 20
211 202 179 204 192 162 150 155 154 148 150 153 151 157 147 178 292 313 322 332 346 347 341 333 338 335 340 5 97 110 101 92 102 114 108 84 60 37 32 38 39 43 42 41
187 173 176 177 168 161 158 163 162 160 162 163 165 164 155 175 290 305 323 334 333 328 327 334 349 338 331 352 84 112 127 134 122 128 139 149 122 74 42 15 25 33 34 40
145 125 133 157 168 165 158 160 156 157 162 163 166 168 161 159 220 289 293 295 310 329 339 352 10 344 329 1 84 108 118 127 131 144 151 160 160 132 106 81 36 7 11 32
167 157 163 160 153 156 153 147 149 163 170 175 175 174 175 182 224 265 278 292 327 346 346 355 4 333 329 17 82 121 127 131 122 125 129 128 123 111 103 97 80 38 16 19
175 145 141 146 159 163 160 162 168 183 186 187 189 193 194 198 229 275 285 291 318 316 309 314 317 309 321 18 87 112 193 187 148 139 118 108 112 118 115 111 101 75 50 22
154 165 168 172 174 175 177 178 180 186 187 187 193 192 187 187 247 288 290 296 293 284 268 259 297 310 323 335 162 198 223 231 163 127 145 148 140 142 143 140 140 136 121 101
184 183 177 177 177 179 186 186 185 185 188 195 186 179 182 192 220 244 262 285 342 353 294 274 295 313 327 328 191 198 205 216 194 183 179 167 160 157 158 160 163 157 152 116
182 179 180 181 180 178 182 186 189 189 186 177 174 183 196 208 219 235 241 234 251 270 271 280 311 329 315 301 268 195 214 218 209 203 194 182 168 167 171 175 178 178 171 164
178 179 180 184 183 178 185 187 182 181 182 175 175 184 202 221 227 232 225 228 234 230 247 273 299 305 299 295 304 225 221 209 203 205 198 191 191 192 189 187 186 184 183 184
175 177 178 182 185 186 184 179 175 182 184 177 177 190 204 221 224 207 199 240 258 240 250 274 275 266 277 290 304 267 242 223 211 208 204 202 206 204 199 194 192 190 189 188
173 178 181 179 178 185 187 179 178 179 178 183 189 191 195 211 218 216 219 223 239 226 225 251 255 258 270 288 282 271 257 241 225 216 210 206 204 208 210 204 199 198 194 190
114 165 177 182 183 185 181 181 183 180 183 188 191 192 197 204 199 195 236 241 225 223 219 238 252 266 278 279 269 268 261 250 234 225 218 212 208 206 207 208 204 199 193 191
47 52 180 187 164 162 183 201 196 193 194 196 198 196 191 197 218 222 220 232 218 220 223 245 261 272 277 258 258 261 260 255 245 235 227 219 213 211 209 206 204 202 197 194
32 31 39 78 145 196 210 209 202 203 200 207 215 211 202 193 200 216 211 217 220 220 230 253 266 278 272 248 249 254 255 251 246 235 225 219 216 213 212 208 205 202 200 198
10 358 325 251 227 224 214 196 201 207 200 211 226 224 217 214 215 213 209 215 220 219 223 240 254 266 255 250 251 252 255 262 262 243 230 225 221 216 214 213 211 205 203 203
348 349 346 335 317 285 242 213 212 217 209 207 221 224 217 213 210 210 211 214 217 222 227 234 238 240 244 247 251 254 257 257 252 244 236 229 224 221 219 216 212 208 203 202